Theta_e
335 337 338 338 338 337 337 337 337 338 338 339 341 341 343 344 344 344 344 343 342 341 341 341 341 340 337 333 331 331 329 328 328 329 329 330 331 332 332 332 332 332 331 330 329 327 326 325 325 325 326 326 326 325 323 322 322 322 321 321 321 321 321 320 321 321 321 321 320 320 321 321 322 323 324 325 327 327 328 328 331 336 337 335 335
333 333 335 335 335 335 335 335 336 338 339 341 342 343 344 344 344 344 344 344 342 341 341 341 341 341 339 338 337 336 334 333 332 331 328 327 327 328 329 329 330 329 329 328 327 326 325 325 326 327 327 326 325 323 322 322 322 322 321 322 321 321 321 321 321 321 321 322 323 324 326 328 330 332 334 336 338 338 338 338 338 339 340 340 341
333 330 331 332 333 334 334 335 336 338 342 343 344 344 344 345 344 345 345 344 342 342 342 342 341 341 341 341 341 340 340 340 341 338 333 329 327 326 326 326 327 327 326 326 326 326 327 328 327 327 326 325 323 322 322 322 322 322 322 322 322 322 323 323 324 325 327 328 330 332 334 337 338 339 341 341 342 342 342 342 342 342 342 342 342
335 333 331 331 331 333 335 336 338 341 343 345 345 345 345 345 345 345 344 343 342 342 342 342 342 342 342 342 342 342 342 343 343 342 338 334 330 326 325 326 326 327 327 328 328 329 328 328 326 325 324 323 322 323 323 323 323 323 324 325 325 326 327 328 329 331 333 335 336 338 339 341 341 341 341 342 341 342 342 342 342 343 343 344 344
336 335 334 334 333 334 335 337 341 343 344 345 345 345 345 344 344 345 344 343 342 342 343 343 342 342 342 342 342 342 342 343 344 344 341 336 333 332 331 331 331 331 331 330 329 328 327 326 324 323 323 323 324 324 325 326 327 329 330 331 332 333 334 335 336 337 337 338 339 340 341 341 341 341 341 341 341 342 342 343 344 345 346 346 347
337 337 336 337 337 336 336 338 341 343 345 345 344 344 345 344 344 344 343 342 343 343 343 343 342 342 342 342 342 343 343 343 344 344 343 339 336 335 336 337 336 334 330 327 326 324 324 323 323 323 324 325 327 329 331 333 334 336 336 337 338 338 338 339 339 339 339 340 340 341 341 341 341 340 340 341 342 345 346 347 347 348 349 349 349
339 339 339 339 339 338 338 338 340 341 342 342 342 343 344 345 344 344 343 342 343 343 343 343 343 343 342 342 343 344 345 345 344 344 344 342 338 336 340 342 341 336 330 326 325 324 324 323 323 325 327 330 333 335 337 337 338 339 339 340 340 340 340 341 341 340 340 340 341 341 340 340 340 339 340 343 346 348 348 349 349 349 349 349 350
342 342 341 341 341 340 339 338 340 341 341 341 342 343 344 344 343 343 343 343 343 344 344 344 343 343 343 344 344 345 346 346 344 343 343 343 339 337 341 343 343 342 337 331 327 326 325 325 326 329 333 335 337 337 338 339 341 342 343 343 343 343 343 342 342 341 341 340 340 340 340 340 339 341 344 347 349 348 347 347 347 347 347 347 348
343 344 344 343 343 342 341 340 339 341 342 343 343 343 343 343 343 344 344 344 344 344 344 344 344 343 345 346 346 346 346 345 344 343 343 343 340 338 338 339 342 345 342 337 332 330 328 327 329 333 336 337 337 338 340 342 344 345 345 346 346 345 345 343 341 340 339 339 339 339 340 340 342 345 347 349 348 345 343 344 344 343 343 343 344
344 345 345 345 345 344 343 341 339 339 342 344 343 343 343 344 344 345 345 344 345 345 345 345 345 345 346 347 346 345 345 343 343 342 343 343 342 341 340 341 343 344 344 342 338 334 331 330 332 335 336 337 339 341 343 345 347 347 347 347 347 346 345 343 340 338 338 339 339 341 342 343 345 347 348 348 345 341 339 340 339 337 336 336 336
344 345 346 346 346 346 345 343 340 338 340 343 343 343 344 345 345 345 345 345 346 346 346 346 346 346 347 347 346 344 342 341 342 342 343 343 343 342 341 342 343 343 343 342 339 334 332 332 332 334 336 338 341 343 344 346 346 346 345 343 343 344 344 342 341 340 340 341 342 343 344 345 345 346 345 342 338 334 333 334 333 330 330 329 327
345 345 346 346 346 346 345 344 341 338 338 341 343 343 344 344 345 345 345 346 346 347 347 347 347 347 346 346 344 342 340 340 340 341 342 342 342 341 341 342 342 342 341 340 337 334 333 333 333 335 337 339 342 343 344 346 345 342 339 337 337 342 344 343 342 342 343 343 343 343 343 343 344 343 340 335 332 330 329 328 327 326 325 324 322
344 345 345 345 345 344 344 343 342 339 338 340 342 343 343 344 345 346 346 346 347 347 347 347 347 346 345 343 342 341 340 340 340 341 342 341 341 341 342 342 342 341 339 337 336 335 335 335 336 338 339 339 341 343 344 345 344 341 339 335 334 340 344 343 343 343 343 342 341 341 342 343 343 339 335 331 330 329 327 326 324 323 322 322 321
343 344 344 344 344 343 343 343 342 340 339 340 341 343 343 343 345 346 346 347 347 348 347 347 347 345 344 343 342 341 341 341 341 341 341 341 341 341 341 341 340 338 337 336 338 340 340 339 339 340 341 340 339 340 341 341 341 339 337 335 332 335 340 341 341 341 340 340 340 341 342 342 340 336 333 332 331 330 328 327 325 323 322 322 322
343 343 344 343 343 343 343 343 343 342 341 340 341 343 344 344 345 346 347 347 348 348 347 348 347 345 344 343 343 343 342 341 341 340 340 340 341 341 341 340 338 336 336 337 341 343 343 343 342 343 343 343 342 340 339 337 336 336 335 333 332 332 334 336 337 337 338 339 340 341 341 339 337 335 333 333 332 331 330 328 327 325 324 322 322
344 344 343 342 342 342 342 342 343 343 342 342 342 343 345 346 346 347 347 347 348 348 348 347 346 345 345 345 344 344 343 342 341 339 339 340 339 340 340 339 336 335 336 340 342 342 342 343 344 345 346 346 345 343 340 338 335 334 333 332 332 331 332 334 335 336 337 337 337 337 337 336 335 334 334 333 333 332 331 330 329 327 326 324 323
344 345 344 342 342 342 342 342 343 343 343 343 343 344 346 346 347 347 348 348 348 348 347 347 346 345 346 346 345 345 344 343 342 340 339 339 339 339 339 338 336 335 338 340 342 342 341 341 343 345 347 347 347 345 343 340 337 334 331 331 332 331 333 335 334 334 334 332 332 332 333 333 333 333 333 333 333 332 332 331 331 329 327 325 324
343 344 343 342 342 341 341 341 342 343 343 344 343 345 346 346 347 349 348 348 347 348 348 346 345 346 346 346 345 344 344 343 343 341 338 338 338 339 339 338 337 337 337 337 339 341 340 340 341 343 345 347 347 346 344 340 337 334 331 330 331 330 330 332 331 331 330 329 329 329 329 330 331 331 331 331 331 331 331 332 332 331 329 327 326
343 343 343 342 341 341 340 340 342 343 344 344 343 344 346 347 348 349 348 348 347 347 347 346 346 346 346 346 344 343 343 343 344 343 340 340 339 339 339 339 340 339 337 336 338 339 340 340 341 342 344 346 346 347 345 340 337 335 332 330 331 331 330 329 328 329 329 329 328 327 327 328 328 328 328 329 329 329 330 331 332 332 331 329 328
342 342 342 342 341 340 340 339 341 343 344 344 344 344 345 346 349 349 348 348 348 347 347 345 345 346 346 346 343 343 343 343 344 343 342 343 341 340 340 339 340 340 339 338 338 338 339 340 341 343 344 345 346 346 346 341 337 337 335 332 331 333 333 333 332 333 333 333 332 331 329 328 328 328 327 327 328 328 329 330 331 332 332 331 330
342 342 342 342 341 340 340 339 341 343 344 343 343 343 344 346 349 349 347 348 347 347 347 346 345 346 347 346 343 343 343 343 343 343 343 343 342 342 341 339 339 340 340 340 339 339 339 340 342 343 344 345 346 346 346 341 337 339 339 335 334 334 336 338 339 339 338 338 338 337 335 332 332 332 330 328 328 328 329 330 330 332 333 333 332
343 342 342 341 341 341 341 340 341 343 343 343 343 343 344 347 349 348 347 348 347 346 347 347 346 346 347 345 343 343 344 344 343 343 342 342 341 342 343 341 339 339 339 340 340 340 339 340 342 344 344 345 346 347 345 340 337 340 340 339 338 337 339 342 343 343 342 341 341 341 340 338 337 338 336 332 330 329 329 330 330 331 333 333 333
344 343 343 341 341 341 341 340 341 342 342 342 342 343 344 346 347 347 347 347 346 346 347 347 347 347 347 346 344 343 344 344 344 343 342 341 341 342 344 343 341 340 339 340 340 340 340 340 341 343 343 345 346 347 345 342 340 341 341 341 340 339 340 343 345 345 345 343 342 342 342 341 340 341 340 338 336 333 332 332 331 331 333 333 333
344 343 342 342 341 341 341 341 341 342 342 342 342 343 344 345 346 346 347 347 347 346 346 347 346 347 347 346 344 344 344 346 346 344 343 342 341 341 343 342 341 341 340 340 341 341 341 340 339 340 341 343 347 347 346 345 343 342 342 343 343 342 341 341 343 344 345 343 342 342 343 343 343 342 342 342 341 339 337 336 333 332 335 335 334
343 343 342 342 341 341 341 341 341 341 342 343 343 343 344 344 345 346 347 347 347 345 346 346 346 347 348 347 345 344 345 346 347 346 344 343 342 343 343 342 342 343 343 342 341 341 340 339 338 339 340 342 346 347 346 347 346 343 343 345 346 346 345 344 344 343 343 343 342 343 344 344 345 345 344 344 344 343 342 340 337 335 338 340 337
343 343 343 342 342 342 341 341 342 342 342 343 343 343 344 344 345 346 348 348 347 345 344 345 345 345 346 346 345 344 345 346 347 347 346 345 344 344 344 344 343 343 344 343 342 342 341 339 338 338 339 342 344 345 345 346 347 345 345 345 345 346 347 346 345 343 343 343 342 342 344 345 346 346 345 343 345 345 344 344 342 338 339 341 341
343 343 343 343 342 342 342 342 342 342 342 342 343 343 344 345 345 346 347 346 343 342 341 342 343 343 344 346 345 344 345 346 347 347 348 347 346 346 346 345 344 344 344 343 343 343 342 341 340 339 339 340 341 343 344 345 346 346 346 345 345 345 345 345 344 343 343 344 344 343 344 346 347 349 347 343 343 345 346 347 347 346 343 343 343
343 343 343 343 343 342 342 342 343 343 342 342 342 343 344 346 346 346 346 344 341 340 340 340 340 341 342 344 345 344 344 346 347 347 347 347 347 348 347 346 346 344 344 343 343 343 343 342 343 342 341 341 341 343 344 345 346 347 347 346 345 344 343 342 342 341 341 341 342 344 346 347 348 350 350 347 344 344 346 348 349 349 348 346 345
342 343 343 343 344 343 343 343 344 344 344 343 343 344 346 346 347 346 345 343 340 340 339 339 339 339 340 341 343 343 343 345 346 346 347 347 347 347 347 347 346 346 345 345 344 343 343 343 345 346 344 344 345 345 346 347 348 348 347 346 345 342 340 340 342 341 337 337 340 342 346 348 349 350 352 351 347 343 344 346 348 350 349 348 347
343 343 343 342 342 343 344 344 345 346 347 345 345 345 346 346 346 347 346 345 343 341 339 339 339 339 339 339 340 342 343 345 346 346 346 346 347 347 347 347 347 346 346 346 345 344 343 343 345 347 348 348 348 348 348 349 349 348 347 346 343 339 337 338 340 338 334 335 338 342 346 349 349 350 351 352 349 346 344 344 347 350 350 349 348
344 344 344 343 342 342 342 343 344 345 346 346 345 346 346 345 345 346 347 346 345 343 341 341 341 340 339 338 338 340 342 343 344 344 344 344 345 346 346 346 346 346 346 346 345 344 343 343 343 344 346 347 347 347 348 348 347 346 345 343 340 337 335 336 336 334 334 336 339 343 347 349 348 348 350 351 350 347 346 343 345 349 350 349 349
346 345 345 345 344 344 343 342 343 345 345 345 345 345 345 345 344 344 345 344 343 342 342 343 342 341 340 340 339 339 340 341 342 341 341 342 344 345 346 345 345 345 346 346 345 344 343 343 342 342 343 344 344 345 344 344 343 342 341 340 339 337 336 335 334 334 335 339 341 344 347 348 348 347 348 349 347 347 347 343 342 346 348 349 350
345 345 344 345 346 347 347 345 345 347 347 347 346 345 345 344 343 343 343 342 341 341 342 342 342 342 341 341 341 341 341 341 341 341 342 343 344 344 344 343 343 344 345 345 345 344 344 344 344 343 343 343 342 342 342 341 340 340 340 340 340 339 337 336 334 335 339 341 342 345 346 347 347 347 347 347 343 345 347 343 338 341 345 348 349
343 343 343 343 344 346 347 347 347 348 349 349 348 346 344 343 343 342 342 342 341 341 341 341 341 342 342 341 341 341 341 341 341 341 342 344 344 344 343 341 341 342 344 345 346 345 344 344 343 343 344 344 343 342 342 341 341 340 340 340 339 338 338 336 335 336 341 342 341 343 345 345 346 346 346 343 339 343 345 341 335 337 342 346 349
342 342 342 342 343 344 345 346 347 347 348 348 348 346 343 342 342 341 341 341 341 341 340 340 341 342 342 341 341 341 341 341 340 341 342 343 343 343 342 340 339 341 342 344 345 346 344 342 340 341 343 343 343 342 342 341 340 339 339 338 337 337 338 337 335 337 339 339 338 341 343 345 346 346 342 336 334 336 337 335 334 335 339 344 347
339 341 341 341 342 343 343 344 346 347 347 347 347 346 344 342 341 340 340 339 339 340 340 340 341 341 342 341 341 341 341 340 340 340 340 341 341 342 341 341 340 339 340 342 343 345 344 342 339 339 341 341 341 340 340 340 339 339 338 337 336 336 336 337 336 336 336 335 335 337 342 344 344 343 336 330 329 329 328 329 332 334 338 343 345
336 337 339 340 340 340 340 341 343 345 346 345 345 344 344 343 341 338 338 337 337 337 337 338 339 340 340 340 340 340 340 340 339 340 340 339 339 338 337 338 337 338 339 340 341 342 343 342 340 339 340 340 340 339 340 339 338 337 336 335 335 335 334 334 334 334 334 333 333 335 338 340 339 337 332 329 331 330 327 327 329 332 336 341 344
332 333 334 336 338 338 338 339 339 341 343 344 343 343 343 343 341 339 337 336 335 335 334 334 335 336 336 336 337 337 337 336 336 336 338 338 337 335 333 332 334 336 337 340 341 342 342 341 341 341 341 342 341 339 340 341 340 338 337 336 335 334 335 334 332 332 332 331 331 331 333 335 335 334 333 331 332 332 329 326 326 329 335 339 343
331 331 332 333 335 337 339 339 339 340 342 343 343 343 344 343 342 340 338 336 335 334 333 333 333 333 333 333 334 334 334 333 331 331 332 332 332 330 329 329 332 336 339 340 342 343 343 344 344 344 343 343 341 339 339 341 340 340 341 340 336 335 337 338 335 334 334 332 331 330 330 332 332 335 336 331 331 332 331 327 326 328 334 339 342
330 331 331 331 333 336 339 341 341 342 343 343 342 343 344 344 343 341 340 338 337 335 334 333 332 332 331 331 331 331 331 330 330 330 329 329 328 327 327 329 333 339 343 344 344 345 345 345 344 344 344 342 341 339 338 339 339 338 339 339 338 337 338 339 337 338 338 336 334 332 330 330 331 334 334 330 328 331 331 329 327 327 332 339 342
333 332 332 332 334 338 340 341 342 343 343 342 342 342 342 343 344 344 343 342 341 340 338 337 336 335 333 332 330 330 330 329 329 329 328 328 328 327 327 329 332 337 341 342 343 344 344 344 343 342 342 340 339 338 337 337 337 336 336 336 336 336 336 336 335 336 338 339 337 335 332 331 332 332 331 328 327 329 329 329 329 328 330 336 341
335 334 333 333 335 339 343 344 343 343 343 343 343 344 344 343 343 343 344 344 344 343 342 342 341 340 339 338 337 336 336 335 334 332 331 330 329 328 327 328 330 332 334 335 336 337 338 339 338 338 338 336 335 336 336 336 335 335 335 335 335 334 335 335 334 333 335 338 339 336 331 330 332 331 329 327 326 327 328 329 330 330 329 330 336
343 340 337 335 333 336 341 344 345 344 343 344 345 346 346 346 345 345 344 344 344 344 344 344 343 343 343 342 342 342 342 341 341 340 339 337 335 332 330 329 329 330 331 331 331 331 332 332 332 333 333 333 331 331 332 332 333 335 336 338 339 339 340 340 339 336 335 338 340 338 332 330 332 331 327 325 325 326 327 328 329 330 330 329 330
349 347 345 342 338 335 336 340 343 346 345 345 345 346 346 347 347 347 346 346 345 345 344 344 344 344 344 344 344 344 344 343 343 343 343 343 342 341 338 337 336 335 335 334 334 333 334 334 333 333 333 332 331 332 333 334 337 339 341 342 343 344 344 345 344 342 340 340 341 340 335 332 333 333 329 325 326 327 328 330 330 330 330 330 329
352 350 349 348 346 342 339 338 342 346 348 347 346 346 346 346 347 347 348 347 347 347 346 345 344 344 344 344 344 344 344 344 345 344 345 345 345 345 345 345 344 343 342 342 341 340 340 340 339 338 337 336 336 338 339 341 341 343 344 344 345 345 346 346 347 346 344 343 343 343 339 332 333 334 330 326 327 330 331 331 331 331 330 330 329
351 351 351 350 349 348 345 342 343 345 348 348 348 347 346 346 346 346 347 347 348 348 347 346 345 344 343 343 343 343 344 344 345 345 345 346 346 346 346 347 346 346 346 346 345 345 345 344 343 343 343 342 342 343 345 344 344 345 346 347 347 347 346 347 347 347 347 345 346 346 342 334 334 336 331 328 330 332 331 331 330 331 331 330 329
350 350 350 350 349 348 347 347 346 347 347 348 349 349 348 347 346 346 345 346 347 347 348 347 346 345 344 343 343 343 343 343 345 345 346 346 347 347 347 347 347 347 347 347 347 347 346 346 346 345 345 345 345 345 346 346 346 347 348 349 349 349 348 348 348 348 348 347 347 348 345 339 338 340 335 330 332 333 332 332 332 332 333 332 330
351 350 350 350 349 348 347 348 349 348 348 347 347 348 350 349 348 346 346 345 346 347 347 347 347 346 345 345 344 344 344 343 343 344 346 346 347 346 347 346 346 347 347 347 347 347 347 347 347 347 347 346 346 346 346 346 346 347 349 350 350 350 349 349 349 348 348 348 347 349 348 344 341 343 340 336 336 335 332 332 334 335 335 333 332
349 349 350 350 350 349 349 350 350 350 350 350 348 348 349 350 350 349 347 347 346 346 346 346 347 346 346 346 346 346 345 344 344 344 345 346 346 346 347 347 347 347 347 347 348 347 347 348 348 348 348 347 347 348 347 347 348 348 350 351 351 351 351 350 349 348 348 349 348 348 349 345 342 345 345 342 341 338 333 331 333 336 336 335 333
346 347 348 350 350 350 350 351 351 351 352 353 351 350 350 351 352 351 350 349 348 347 347 346 346 346 346 346 347 346 346 346 345 345 345 346 347 347 348 349 349 349 349 349 350 350 349 350 350 350 349 348 348 349 349 349 350 350 351 352 353 353 352 351 351 350 350 350 349 349 350 347 344 346 347 347 346 342 336 332 332 334 336 336 335
342 343 345 347 348 350 351 351 351 351 352 352 352 352 352 352 352 352 352 352 351 350 350 349 348 347 347 347 347 347 347 348 348 347 347 348 348 349 350 351 351 351 351 351 351 351 350 351 351 351 350 349 350 350 350 350 351 352 353 354 354 355 354 353 353 353 353 352 350 351 352 350 348 349 350 351 351 347 341 336 333 333 334 335 335
Wind_Speed
10 10 10 11 12 13 14 15 15 15 14 14 13 12 11 11 10 9 9 9 9 10 11 11 11 11 11 12 12 12 12 11 11 10 9 8 8 7 7 7 7 7 7 7 8 8 8 8 8 8 8 7 8 9 9 10 10 10 10 11 11 10 10 10 10 10 10 10 10 10 10 10 10 11 11 11 11 11 11 11 10 9 9 9 9
11 11 12 12 13 14 14 14 14 14 14 13 12 11 10 10 9 8 8 8 8 9 10 10 10 11 11 12 13 13 13 13 12 11 11 10 8 7 7 7 7 7 7 7 8 8 8 8 8 8 7 8 9 10 11 11 11 11 12 12 12 11 10 11 11 11 10 10 10 10 10 10 11 11 11 11 11 11 11 11 11 11 11 10 11
11 11 12 12 13 13 13 13 13 13 12 12 11 9 9 8 8 7 7 7 8 9 10 10 11 11 11 12 13 13 13 13 13 12 12 12 10 8 7 7 7 7 7 8 8 8 8 8 8 8 8 9 10 11 12 12 12 13 13 12 12 11 11 11 11 11 10 11 10 11 11 11 11 11 11 11 11 11 11 11 11 12 12 12 12
11 11 11 11 11 11 10 10 10 11 11 10 9 8 7 7 7 7 8 8 8 9 10 10 10 10 10 10 11 11 12 12 13 13 13 12 12 10 9 8 8 8 8 8 8 8 7 8 8 9 10 11 12 13 13 13 13 13 13 12 12 12 12 12 11 11 11 11 11 11 11 11 11 12 12 12 12 13 13 13 13 13 13 13 13
10 10 10 9 9 9 8 9 9 9 10 9 7 6 6 7 7 8 8 8 8 8 9 9 9 9 8 9 9 10 10 11 12 13 13 12 11 11 10 10 9 9 9 8 8 7 7 8 9 10 11 12 13 14 14 14 13 13 13 13 13 13 12 12 11 11 11 11 11 11 12 12 12 13 13 14 14 14 14 14 14 14 14 14 14
9 9 9 9 9 8 8 8 8 8 9 7 5 5 6 7 7 7 7 8 7 7 7 7 7 7 7 7 8 9 10 10 10 11 12 11 10 10 10 10 10 9 9 9 8 8 8 9 10 11 12 13 13 14 14 13 13 13 13 13 13 13 12 12 12 12 11 11 11 12 12 13 14 14 15 15 15 16 16 16 15 15 15 15 15
8 8 9 8 8 8 8 8 8 8 8 7 5 6 7 7 6 6 7 7 6 5 5 6 6 6 6 6 7 9 10 10 10 10 10 10 9 9 10 11 11 11 9 9 10 9 10 10 11 12 12 13 13 13 13 13 13 13 13 13 13 12 12 12 12 12 12 12 12 13 13 14 15 16 16 16 16 16 16 16 16 15 16 16 16
9 9 8 8 8 7 7 7 8 7 7 7 6 6 6 6 6 6 7 6 4 4 5 6 6 6 6 6 7 8 9 9 8 8 8 8 8 8 9 10 11 11 10 10 11 10 10 11 12 12 12 12 12 12 12 12 12 12 12 13 13 12 12 12 12 12 12 13 13 14 14 15 16 16 17 17 17 17 16 16 16 16 16 15 16
9 9 8 8 7 6 6 6 7 7 7 7 7 7 7 7 6 5 5 4 3 3 4 6 6 6 6 7 7 7 7 7 7 6 7 7 7 6 6 8 9 10 10 10 11 11 10 10 11 11 11 11 12 12 11 12 12 13 14 14 14 14 13 13 13 13 13 13 14 14 15 15 16 16 16 17 18 17 16 15 15 14 14 14 14
9 9 8 7 6 6 6 6 7 8 8 8 8 8 7 6 5 4 3 2 1 2 4 5 6 6 6 7 6 6 6 6 5 5 5 5 5 5 6 7 8 9 10 10 11 11 10 10 10 10 10 11 11 11 11 12 13 14 15 15 15 15 14 14 13 13 14 14 14 15 15 15 16 17 17 18 19 18 16 14 14 14 13 13 13
9 9 7 6 6 6 6 7 7 7 7 8 8 7 7 6 4 3 3 2 1 3 4 4 5 5 6 7 7 6 5 4 3 3 4 4 4 5 6 7 7 8 8 9 10 11 10 9 9 9 9 10 10 10 11 13 14 14 15 15 15 15 15 15 14 14 14 15 15 15 16 17 17 18 19 20 20 20 18 16 16 16 16 15 15
9 8 7 6 6 6 6 7 7 7 7 7 7 7 6 5 4 3 2 2 1 2 3 5 6 6 5 6 7 6 5 4 3 3 3 3 4 5 6 6 7 7 8 8 10 10 10 9 9 8 8 9 10 11 12 14 15 15 16 16 17 16 16 16 15 15 15 15 16 16 17 18 18 19 19 20 20 21 20 20 20 20 20 19 19
9 8 7 6 6 6 7 7 7 7 7 7 7 7 6 4 3 2 2 2 1 2 4 6 7 7 6 7 7 7 6 5 4 4 4 4 5 5 6 7 7 7 8 9 10 10 10 9 9 8 9 10 11 12 13 14 15 16 17 18 18 17 16 16 15 15 15 16 17 17 17 17 18 19 20 20 21 21 21 22 22 22 22 22 22
8 8 7 7 7 6 6 7 7 7 7 7 6 6 5 4 3 2 1 2 1 3 4 6 7 8 8 8 8 7 8 7 5 4 5 5 6 6 7 7 7 8 9 10 11 12 11 11 10 10 10 11 12 13 14 15 16 17 17 19 19 17 16 15 16 16 16 16 17 17 17 17 18 18 19 20 20 21 21 22 22 23 23 23 24
7 8 8 7 7 6 6 7 8 7 7 7 6 5 5 4 3 2 2 2 2 2 3 5 6 7 8 9 10 9 8 8 6 5 6 6 6 6 6 7 7 8 9 10 11 12 12 12 11 11 12 13 13 14 15 16 17 18 19 20 20 19 17 16 16 16 16 17 16 16 17 17 17 18 19 19 20 20 21 21 22 22 23 23 24
7 7 7 7 6 6 7 8 8 8 7 7 6 5 5 4 3 2 3 2 1 1 3 5 5 7 8 9 10 11 11 10 8 7 8 7 6 6 5 6 7 8 9 9 10 10 11 11 11 12 13 14 15 15 15 16 18 19 19 20 21 20 19 17 17 16 16 17 16 16 16 16 17 17 18 19 19 19 19 20 20 21 22 23 24
7 7 7 6 6 6 7 8 8 8 8 7 6 6 5 5 4 3 3 2 0 2 3 3 4 6 8 9 8 9 12 13 10 8 9 9 8 7 6 6 7 8 7 8 8 9 9 10 10 11 12 13 14 16 16 16 17 18 19 20 21 21 20 18 17 16 17 16 16 16 16 16 16 17 17 18 18 18 18 19 19 20 21 22 24
8 7 7 7 7 7 7 8 9 9 8 7 6 6 6 6 5 4 3 2 1 1 2 2 3 4 6 8 7 8 10 11 11 9 8 9 9 8 8 7 7 7 6 6 7 7 8 8 9 9 11 12 13 15 16 16 15 16 18 18 19 20 19 17 16 16 17 17 17 16 16 16 17 17 17 17 18 18 18 19 19 20 21 22 24
8 7 7 7 7 7 7 8 9 9 8 7 7 7 7 6 5 5 4 2 1 1 1 1 2 3 4 6 6 7 8 9 11 9 8 9 7 7 7 6 6 6 6 6 5 6 7 8 9 9 10 11 12 13 15 16 14 14 16 16 17 17 17 17 16 16 17 17 17 17 16 17 17 17 18 18 18 18 19 19 20 20 21 22 24
8 8 7 7 7 7 7 8 9 8 8 7 8 8 8 8 7 6 4 2 2 1 1 1 1 1 3 4 5 6 6 6 9 9 8 8 7 6 5 4 4 4 4 4 4 4 5 7 9 9 9 10 11 12 14 14 12 12 13 14 14 15 15 15 15 15 16 17 17 17 17 17 17 18 18 19 19 19 19 20 21 21 21 22 23
8 8 8 8 8 8 8 9 9 9 8 8 8 8 9 8 8 7 5 3 3 2 1 1 0 1 2 2 3 4 4 4 6 7 6 6 7 8 6 4 3 3 2 2 2 3 4 6 7 8 8 10 11 12 13 13 11 10 12 12 12 13 14 14 15 15 15 16 17 18 18 18 18 19 19 19 20 20 20 21 21 21 22 23 24
7 7 8 8 8 8 9 9 10 9 9 9 9 9 9 9 8 8 6 5 5 4 2 1 1 2 2 2 2 2 2 3 5 5 5 5 6 8 8 6 4 3 3 2 2 2 4 5 6 7 8 9 11 12 12 11 10 9 10 12 12 12 12 13 14 15 15 16 16 17 18 18 18 19 20 20 20 20 20 21 21 22 22 23 24
6 7 7 8 8 9 9 10 10 10 9 10 10 10 9 9 8 8 8 7 6 5 3 2 2 2 3 4 3 2 2 3 5 5 5 5 5 5 6 7 6 4 3 3 3 3 4 5 5 6 7 8 9 11 11 10 9 9 10 12 13 12 12 13 14 14 15 16 16 17 18 18 18 19 20 20 20 20 21 21 21 21 23 23 24
7 7 7 8 8 9 10 10 10 10 9 9 10 10 9 9 8 8 8 8 8 8 6 5 4 4 4 5 5 3 2 3 5 5 5 5 4 4 5 6 6 6 5 5 5 5 5 6 6 6 7 7 7 9 10 10 9 9 10 12 13 13 13 13 14 15 15 16 17 17 18 19 19 19 20 20 20 20 21 22 21 20 23 24 25
6 6 7 7 8 8 9 9 9 9 9 9 9 9 9 9 8 8 8 9 10 9 9 8 7 6 6 6 6 5 3 2 3 4 4 4 4 4 5 5 6 7 7 6 6 7 7 7 7 7 7 7 7 8 9 10 10 9 9 12 13 14 14 14 15 15 15 16 17 18 18 19 19 19 19 20 20 20 20 22 21 20 22 25 27
5 5 6 7 7 7 7 8 8 9 9 9 10 9 9 9 8 8 9 10 10 10 10 10 10 9 9 8 8 6 4 2 1 2 3 3 3 3 4 4 4 5 7 7 8 8 8 8 8 8 8 8 8 9 10 11 11 10 10 12 14 14 15 15 15 15 15 16 17 18 18 18 18 18 19 20 20 19 20 21 22 21 21 24 26
5 6 7 6 7 7 7 7 8 8 9 10 10 10 9 9 9 9 10 10 10 10 10 10 10 11 11 10 9 8 6 5 3 1 1 2 3 4 5 6 6 6 7 8 9 10 10 10 9 9 9 9 9 10 11 12 12 12 12 14 15 16 16 17 17 17 16 17 18 18 18 18 17 17 18 19 19 19 19 20 21 22 22 23 25
7 7 7 7 7 7 7 7 7 8 9 9 9 9 9 9 9 9 10 10 10 10 10 10 10 11 11 11 10 9 9 8 6 4 3 3 3 4 6 7 9 9 10 10 11 11 12 12 11 11 10 9 9 10 11 12 13 13 14 16 17 18 19 19 19 18 18 19 19 18 18 17 17 17 17 18 19 18 18 19 20 22 23 24 24
8 8 8 8 7 7 7 7 7 8 9 9 8 9 9 9 8 8 9 10 10 10 11 10 10 10 11 11 11 10 10 10 8 7 6 6 6 6 7 8 9 10 11 12 13 13 12 11 10 10 9 9 9 10 11 12 13 14 15 17 19 20 20 20 20 19 20 21 20 18 17 17 16 16 17 17 18 19 18 18 19 21 22 23 23
9 9 9 9 8 9 8 8 8 8 8 8 8 9 9 9 8 8 9 10 11 10 11 10 10 11 11 11 10 10 11 11 10 10 9 9 9 9 9 9 10 11 11 12 13 13 11 9 7 8 8 8 9 10 11 12 14 15 17 18 19 20 20 20 20 20 21 21 19 17 16 17 16 16 16 17 18 19 19 18 18 19 21 22 22
10 10 10 11 10 10 10 10 10 9 9 8 9 9 10 9 9 9 9 10 11 10 10 10 10 10 10 10 10 10 11 12 12 12 13 13 13 12 11 11 12 12 12 13 13 13 12 9 8 8 9 9 9 10 11 13 15 16 18 20 20 19 19 19 19 20 20 19 17 16 16 16 16 15 15 16 17 19 19 19 18 18 19 20 21
11 11 11 11 12 12 11 12 11 11 10 9 9 10 10 10 10 9 9 10 10 9 9 9 9 10 10 9 9 9 11 12 13 13 14 14 14 14 14 14 14 13 13 13 15 15 13 11 9 8 9 11 12 12 13 14 16 17 18 18 18 19 19 19 19 19 17 16 15 15 15 15 15 15 15 16 17 18 19 19 18 17 18 19 19
12 12 12 12 13 13 12 12 12 12 11 11 10 11 11 11 10 10 10 10 9 8 8 8 8 9 9 9 9 9 10 10 11 11 12 12 13 13 14 15 14 14 14 14 15 16 14 12 11 10 10 12 12 13 14 15 15 16 16 15 16 17 18 18 17 16 15 14 15 15 15 15 15 15 16 17 17 18 19 19 18 16 16 17 17
12 12 12 12 13 13 13 13 13 13 12 12 11 12 12 12 11 11 10 10 10 9 8 8 7 8 8 8 7 8 9 9 9 8 9 9 11 11 12 13 13 13 14 14 15 17 16 14 13 12 11 12 13 12 13 15 15 15 15 15 15 16 16 16 16 14 13 14 15 15 16 16 16 16 17 17 18 18 19 19 17 15 15 15 15
12 12 13 13 13 13 13 13 13 13 13 12 12 12 13 13 12 12 12 12 11 10 10 9 8 8 8 8 7 7 8 9 8 8 8 8 9 10 11 11 12 12 13 14 15 17 18 17 15 14 13 13 14 13 14 15 15 15 15 15 15 15 14 15 15 14 14 15 16 16 16 16 16 17 17 17 18 18 18 17 16 14 14 13 13
13 13 13 14 14 14 14 13 13 13 13 12 12 13 13 13 13 13 13 13 13 12 12 11 10 10 10 9 8 8 9 10 9 9 8 9 9 10 10 11 11 12 13 14 16 17 19 19 17 15 15 15 15 14 15 15 15 15 15 15 14 13 13 14 14 14 15 16 16 15 15 16 17 16 16 16 17 18 17 16 14 14 13 12 12
15 15 14 14 15 15 15 14 13 13 13 13 13 13 13 13 13 13 14 14 14 14 14 13 12 12 11 11 9 9 10 11 11 10 10 10 10 10 11 11 11 12 13 14 15 17 18 19 17 15 14 14 14 13 14 15 15 14 14 14 13 13 12 12 13 13 15 15 15 15 15 15 16 15 15 16 17 18 17 15 14 14 12 11 12
17 17 16 16 15 15 15 14 14 13 13 13 13 13 13 13 13 13 14 15 15 15 15 14 14 13 13 12 12 11 12 12 12 12 12 12 12 12 11 11 11 11 12 12 13 14 15 15 15 14 13 13 14 14 13 15 16 16 15 15 13 12 13 13 13 14 15 16 15 15 14 15 15 15 16 17 18 18 16 14 14 14 12 11 11
20 19 19 18 17 16 15 14 13 13 12 12 13 13 13 13 13 14 14 15 15 15 16 16 15 14 14 13 13 13 13 13 13 13 13 13 13 12 11 11 11 11 11 10 10 11 12 13 14 15 15 15 15 15 14 16 17 17 18 19 17 14 16 17 17 17 18 18 17 17 16 16 15 15 17 18 18 17 16 14 14 14 13 12 11
21 21 20 20 19 18 16 15 14 13 13 14 14 13 13 13 13 14 13 13 14 14 15 15 15 15 15 14 14 14 14 14 14 13 13 13 13 12 11 11 11 12 11 11 11 12 13 15 15 16 16 17 16 16 16 17 18 18 19 21 21 19 19 20 20 20 21 21 20 19 19 19 18 18 19 19 18 17 15 14 14 14 13 12 12
21 21 21 20 19 19 18 16 15 15 15 15 15 15 15 14 14 14 13 13 13 13 13 13 13 14 14 14 15 14 14 15 15 15 15 15 15 14 12 11 12 13 13 14 15 15 16 17 17 17 18 19 19 18 19 19 19 19 19 21 23 22 23 22 20 19 21 22 22 21 20 20 21 21 21 21 18 16 15 14 14 14 13 13 13
22 22 22 21 21 20 19 18 18 17 17 17 16 16 16 16 16 16 15 15 14 14 14 14 13 13 12 13 13 13 13 14 14 15 15 16 16 17 15 14 13 14 15 16 17 17 18 19 19 19 21 21 21 21 22 21 20 21 22 23 24 24 23 24 23 20 20 22 24 24 22 21 22 23 23 21 19 17 16 15 15 14 14 14 14
22 22 23 23 23 22 21 20 20 20 19 18 17 17 17 18 18 18 18 17 17 17 17 16 16 15 15 14 14 14 14 14 14 14 14 15 16 16 17 17 16 16 17 18 18 18 19 20 21 21 22 24 23 23 24 24 23 24 24 24 24 24 24 25 25 24 22 23 26 27 25 22 22 23 22 20 18 17 17 16 16 16 16 15 15
23 23 23 23 23 23 22 21 20 20 20 20 20 20 20 20 21 21 21 21 21 20 20 19 19 18 18 18 17 17 16 15 14 14 14 14 14 14 15 15 15 16 17 18 19 19 20 21 22 22 23 24 24 23 23 24 24 25 25 24 25 25 25 26 27 26 24 24 26 29 28 25 23 23 21 18 16 15 15 16 16 17 17 16 16
24 24 24 23 22 22 22 22 20 19 20 21 21 23 23 22 22 23 23 24 24 23 23 22 21 21 21 21 20 19 18 16 16 16 15 15 14 14 15 15 15 15 16 17 18 19 20 21 23 23 22 22 24 23 22 23 25 26 27 27 26 27 28 28 28 28 26 25 26 28 30 28 23 23 22 18 15 15 15 15 16 17 18 18 17
25 25 24 24 22 22 22 23 22 21 21 21 22 24 26 26 25 24 25 25 25 25 25 24 23 22 22 21 21 21 20 19 19 18 17 17 17 18 18 18 18 17 17 18 18 19 20 21 23 23 21 21 23 23 21 23 25 27 27 28 28 28 29 29 29 29 27 25 25 27 32 30 25 24 24 20 18 17 15 15 16 17 17 18 17
22 23 23 23 22 22 23 24 24 24 24 24 23 23 25 27 27 26 26 26 26 26 26 25 25 24 23 22 22 22 21 21 20 19 19 19 20 20 20 20 20 20 20 20 19 20 21 22 24 24 23 22 23 24 23 23 25 26 27 28 28 28 29 30 30 30 28 26 24 27 32 32 27 27 26 22 21 20 17 16 17 17 18 18 18
17 18 20 20 20 22 23 24 25 26 26 28 28 27 27 28 27 27 26 26 26 26 26 26 26 25 25 24 24 23 23 23 22 21 22 22 23 23 23 22 23 23 23 23 22 23 24 24 26 26 26 25 25 25 24 23 24 25 26 28 29 29 30 31 32 31 30 28 26 27 32 34 31 30 29 25 23 22 19 17 17 16 18 19 19
10 12 14 15 16 18 18 20 23 24 24 25 28 30 31 31 29 28 28 27 27 27 27 27 27 27 26 25 25 25 25 25 25 24 25 26 26 26 26 26 26 27 27 26 26 26 27 27 28 29 29 28 27 26 25 23 23 23 26 29 29 28 30 32 33 33 32 30 29 28 32 35 33 31 30 28 27 25 21 19 17 15 16 18 18
8 10 11 12 13 13 12 12 13 14 15 19 24 28 31 32 31 30 29 29 29 29 29 30 30 29 28 28 27 27 27 26 26 26 26 27 27 27 28 28 29 30 30 29 29 29 29 29 29 29 29 29 28 28 27 25 24 23 26 29 28 28 30 32 33 33 33 34 32 29 31 34 32 30 31 31 32 29 24 20 18 16 16 16 16
7 8 10 10 10 10 10 8 7 11 15 18 21 24 27 29 30 30 30 30 30 31 31 31 31 30 30 30 29 29 29 28 28 27 27 28 29 29 30 30 31 32 32 30 29 29 29 29 29 29 29 28 28 28 28 27 25 25 26 28 27 27 29 31 31 31 33 35 33 29 30 32 32 30 30 31 34 34 29 23 20 19 17 16 16
Wind_Direction
127 134 137 135 134 133 129 127 126 124 123 122 120 119 118 116 112 104 93 82 78 79 76 72 69 68 69 70 71 69 65 62 57 53 49 47 46 46 45 41 41 42 41 39 37 35 32 34 34 31 29 29 35 41 44 44 42 41 42 41 39 35 29 25 25 20 16 14 12 11 9 9 8 8 8 6 5 5 3 360 355 349 346 343 336
127 133 137 136 134 132 129 128 128 128 128 127 126 127 127 122 117 109 94 83 79 79 77 75 73 72 72 70 68 66 64 60 55 52 48 45 43 42 42 40 38 38 36 35 35 35 35 37 38 36 36 39 44 46 47 45 43 42 40 39 37 33 30 27 27 23 20 18 17 16 16 16 14 12 10 9 6 4 2 359 356 353 349 345 340
133 135 136 136 135 132 131 132 133 134 134 133 133 133 132 126 120 110 97 86 81 82 83 83 81 78 74 69 65 62 58 55 51 51 49 46 45 45 44 42 43 42 40 38 38 38 39 42 42 42 43 46 50 50 49 47 44 42 38 36 34 32 31 29 28 26 23 22 20 19 18 15 12 8 5 2 359 356 353 350 347 345 342 338 335
140 141 141 141 142 140 138 138 140 143 142 138 134 134 133 128 122 110 99 91 87 90 89 86 83 78 71 64 60 55 49 46 45 47 48 47 46 48 51 51 51 50 47 43 41 42 44 48 49 49 50 51 53 52 50 47 44 41 38 35 34 32 31 29 28 26 24 20 17 15 12 8 5 0 357 353 349 346 342 339 337 335 333 329 326
141 143 146 148 150 152 151 148 147 152 152 146 138 136 137 134 126 111 100 96 95 95 87 81 77 71 66 61 56 50 45 42 40 42 45 47 47 49 52 53 53 50 48 45 43 45 47 52 54 55 57 56 55 53 50 47 44 40 37 35 32 30 28 25 23 20 17 13 9 6 2 358 355 351 349 345 343 339 336 335 332 330 328 323 320
146 148 151 150 151 153 154 154 155 162 166 166 159 152 150 142 129 113 107 103 97 89 77 70 64 59 59 57 54 47 43 40 39 42 45 48 48 47 51 52 51 49 49 49 49 53 56 59 61 62 62 60 58 54 51 47 43 39 35 31 28 25 21 17 14 10 6 2 358 354 351 348 347 346 345 344 341 338 337 336 332 328 326 325 323
159 159 161 157 155 153 153 157 160 169 177 181 175 165 159 151 138 122 117 109 92 72 58 48 42 45 50 53 52 45 40 38 40 45 47 50 53 58 62 59 55 52 52 54 56 59 63 66 67 67 66 63 60 55 50 44 38 32 27 23 19 15 10 6 2 357 352 348 345 344 343 342 344 345 345 344 342 342 341 337 334 331 330 330 328
162 160 160 158 156 155 156 160 162 167 173 175 169 164 160 156 147 131 123 112 86 48 27 20 24 34 39 43 44 39 38 37 41 49 52 55 64 75 72 60 55 53 53 56 58 59 62 68 70 68 66 62 58 51 43 36 29 25 21 17 13 7 1 356 350 345 341 338 338 338 340 342 345 346 346 344 344 346 343 336 335 334 333 332 329
161 158 156 155 155 155 159 165 166 167 166 162 160 159 155 152 147 134 126 113 77 22 2 4 13 23 28 32 34 34 36 39 47 56 60 63 72 80 73 62 60 59 58 58 60 60 61 66 68 66 62 56 50 43 35 29 24 20 15 11 6 1 356 350 344 340 339 339 341 343 345 348 350 350 349 347 346 347 343 337 335 333 335 335 329
164 159 155 155 157 158 166 172 172 170 163 158 158 157 153 151 151 143 132 118 62 10 1 2 10 17 18 21 27 34 38 47 61 69 73 77 76 78 78 75 73 69 65 63 64 63 62 63 64 63 57 49 41 35 31 26 20 13 7 1 356 352 349 346 343 344 346 348 351 354 354 354 354 353 351 349 348 347 345 341 340 341 346 343 335
169 163 157 158 163 167 172 175 175 173 167 162 162 161 161 159 153 150 139 126 45 13 13 12 13 8 2 5 16 34 50 62 77 85 89 90 87 91 90 86 82 77 70 68 69 68 65 61 60 59 52 44 38 34 32 26 19 10 4 357 352 350 348 347 349 353 356 358 359 359 358 356 355 355 353 353 352 352 352 352 352 354 356 354 352
176 170 163 161 166 173 174 172 170 172 172 167 164 165 169 165 154 155 150 141 31 3 11 13 11 4 3 6 14 34 60 73 76 82 91 97 100 100 96 94 92 85 78 75 74 71 66 60 56 54 49 44 40 38 35 29 22 14 8 3 360 357 357 357 358 1 2 2 1 358 358 356 356 356 356 357 357 357 359 359 359 360 360 360 0
181 176 172 167 168 170 166 160 159 167 172 168 167 169 168 164 162 173 173 168 295 340 356 3 6 13 27 33 34 43 53 61 66 68 70 75 84 92 95 98 95 88 86 83 79 74 66 60 58 54 53 52 46 41 35 30 24 17 13 11 8 4 2 2 1 2 1 360 359 358 357 357 357 358 358 359 359 359 360 360 360 360 0 1 1
172 174 177 175 170 167 161 156 156 162 168 171 177 178 171 170 174 194 211 202 281 329 350 356 4 18 32 43 49 50 51 48 43 44 55 60 65 78 90 93 91 90 91 90 85 78 70 66 64 59 56 54 48 41 34 28 23 18 15 15 14 9 4 2 0 359 359 359 360 359 359 358 358 359 359 359 359 358 358 358 359 359 359 360 360
162 167 175 176 169 162 161 162 160 161 170 174 178 181 179 180 183 201 235 236 278 327 1 8 12 21 29 37 40 45 48 42 33 33 40 49 54 63 80 84 89 97 99 98 91 81 74 68 64 58 53 49 44 39 34 28 24 19 16 17 18 15 9 6 3 1 2 3 3 2 1 359 358 358 358 358 357 356 356 356 356 357 358 358 358
168 169 173 173 167 165 165 167 166 167 173 172 173 179 176 175 183 205 231 244 273 14 32 31 29 29 30 32 34 37 33 27 34 40 33 37 47 52 65 78 94 108 106 102 95 83 75 66 58 52 48 43 39 35 31 28 24 18 16 19 21 20 16 13 11 9 8 8 7 4 2 0 358 358 358 358 357 355 355 355 355 355 356 356 356
179 177 179 178 175 175 174 172 169 169 169 168 173 177 169 168 180 200 218 230 173 77 53 44 39 36 34 30 28 27 20 18 28 41 41 42 47 49 57 79 103 114 107 101 95 86 78 65 54 48 42 38 34 30 26 25 23 17 14 19 23 24 21 18 17 16 14 13 10 7 5 3 360 359 360 360 358 356 356 356 355 355 355 355 355
181 182 185 185 181 181 182 178 172 168 166 166 172 174 171 174 181 194 203 200 152 75 51 57 47 40 36 29 24 17 14 19 24 36 50 47 44 50 57 78 101 106 99 97 96 91 82 68 54 46 39 34 30 27 23 22 20 16 13 17 24 27 24 21 21 20 18 15 13 10 7 5 3 2 2 2 0 359 358 358 357 356 356 355 355
181 185 189 188 184 181 184 183 177 173 169 169 173 175 183 188 187 193 194 180 170 103 68 90 60 38 30 24 21 16 16 24 24 27 41 42 43 53 56 70 92 95 92 91 92 94 84 69 57 48 41 32 26 25 22 20 19 15 13 16 23 27 26 24 24 24 22 18 15 12 9 8 5 4 3 2 1 0 0 360 359 358 357 356 355
181 186 191 191 187 182 185 189 186 182 178 176 178 182 192 195 192 195 195 195 204 184 127 120 85 12 9 8 7 13 21 30 26 24 29 34 37 39 44 65 82 81 86 84 76 79 76 70 61 50 40 30 24 21 20 19 18 14 12 15 22 24 24 24 22 24 25 23 19 16 13 12 10 8 5 2 1 360 1 3 3 1 359 358 357
182 187 191 192 193 190 190 192 192 190 187 186 184 186 192 195 196 202 206 215 225 210 156 123 174 279 319 344 357 11 20 22 21 19 21 26 25 19 18 38 63 43 37 60 61 55 56 63 62 47 34 28 22 18 19 20 19 14 12 16 22 22 22 20 16 17 20 21 21 18 16 15 13 11 8 4 2 0 2 5 6 4 1 359 358
187 188 190 193 195 195 194 195 198 197 194 191 189 189 193 197 202 209 216 228 233 224 196 163 225 270 295 311 339 360 7 13 13 11 14 18 19 15 9 7 15 8 356 1 12 22 32 42 53 44 29 23 20 16 18 23 20 16 16 20 23 22 19 17 11 8 9 12 14 15 13 12 11 10 8 5 4 3 3 4 6 7 5 2 1
197 196 197 199 198 196 196 198 202 201 197 193 191 194 199 205 212 216 224 235 239 232 221 219 235 270 297 298 308 328 352 15 18 13 14 13 12 15 9 1 357 352 344 345 351 357 7 16 31 32 21 15 14 12 15 22 22 18 18 20 21 20 16 13 7 1 0 2 5 8 10 8 6 7 7 5 4 4 4 4 6 8 8 6 3
203 204 204 205 202 197 196 199 202 202 199 196 196 201 206 213 220 224 230 243 248 238 229 228 236 258 282 285 285 295 330 9 24 26 24 20 14 12 6 355 351 349 340 330 335 343 348 352 358 0 358 358 2 4 7 13 13 12 14 13 14 14 12 11 6 359 356 356 357 0 4 5 4 5 6 4 2 3 4 5 7 9 11 10 7
203 208 210 207 205 200 199 200 203 204 203 204 206 209 213 218 224 230 237 248 253 244 233 231 235 244 260 271 269 265 278 329 17 35 34 30 22 15 8 356 350 352 350 340 331 334 339 341 342 342 340 341 345 346 350 355 356 357 3 5 4 4 3 4 4 0 356 354 353 355 359 1 2 4 6 5 2 2 4 6 8 9 11 11 10
203 206 215 211 203 202 203 203 204 206 209 212 213 216 222 225 226 233 241 248 252 248 238 234 236 241 247 256 258 252 248 264 318 25 39 35 22 10 360 347 336 339 347 348 341 337 339 337 334 331 328 327 327 327 331 338 342 343 348 354 356 354 352 351 354 357 356 353 351 352 356 357 358 1 5 5 3 1 2 6 9 8 7 6 7
204 206 214 214 206 206 208 210 212 214 217 220 222 226 231 233 232 236 241 246 247 247 244 240 240 244 245 248 250 245 238 240 253 295 359 10 2 354 343 333 325 321 324 331 337 339 338 333 327 322 317 313 314 314 316 321 327 330 336 342 346 344 341 340 342 346 350 350 348 348 352 353 354 357 1 4 3 360 0 4 7 8 5 3 3
205 208 213 212 208 209 209 212 219 223 226 228 229 231 234 237 238 238 240 243 242 243 245 243 243 244 246 248 248 242 236 236 243 256 270 294 313 327 330 329 327 324 320 319 325 332 332 329 326 322 315 308 305 304 305 309 315 319 325 331 336 335 332 333 335 337 340 344 343 342 346 349 350 352 355 360 1 358 356 358 3 6 5 3 2
204 209 217 217 210 209 208 207 215 222 228 231 231 233 236 241 243 243 243 243 240 239 240 242 244 245 247 248 247 242 237 237 245 255 262 273 286 298 309 316 321 324 325 323 322 325 329 329 326 323 317 311 305 300 300 303 307 311 316 321 325 326 325 327 330 333 336 338 338 337 339 343 346 347 349 353 358 357 353 352 358 3 3 2 1
206 210 219 223 220 219 216 213 217 221 225 230 232 235 241 244 246 247 246 244 242 239 238 239 242 246 249 251 249 244 240 241 249 260 267 272 279 287 295 302 308 313 318 320 320 320 321 321 316 310 306 304 304 300 297 297 300 304 309 312 315 318 319 321 325 331 334 334 332 332 334 338 341 342 343 346 352 353 350 348 351 358 1 1 0
214 216 220 225 227 228 227 224 225 227 229 233 235 238 244 247 249 248 244 242 242 240 237 238 242 245 247 250 251 247 245 247 254 265 273 275 277 281 287 294 298 301 305 309 310 311 310 305 298 291 286 285 290 294 294 296 298 301 303 306 308 312 315 318 322 328 331 329 327 327 331 335 338 339 338 340 346 348 346 344 346 352 357 359 358
224 225 226 227 228 231 233 229 226 229 234 237 238 241 245 248 251 250 246 245 244 241 238 240 243 244 243 245 248 248 248 251 257 266 273 274 275 278 282 287 289 290 294 297 299 301 302 300 296 291 285 281 279 282 287 290 294 298 301 305 308 312 314 316 320 324 325 322 321 323 327 331 335 336 335 337 342 343 342 341 340 344 352 355 356
231 233 233 232 231 233 235 231 227 230 237 242 244 246 248 249 250 250 249 250 248 245 243 243 243 243 243 243 243 245 249 252 257 265 271 276 277 279 280 282 282 282 284 289 294 297 300 300 300 299 296 291 286 284 286 288 292 296 300 304 307 310 312 314 316 318 317 314 315 317 320 324 328 332 333 336 338 338 337 338 337 339 347 351 352
236 238 239 239 237 236 236 234 233 235 241 248 250 251 251 253 253 252 252 253 254 252 249 246 245 249 253 252 249 250 253 254 257 264 272 277 279 280 282 282 282 279 279 284 289 294 299 302 304 304 303 299 297 297 297 297 299 299 299 301 303 307 311 313 313 312 309 307 309 311 315 318 322 327 330 331 333 333 333 334 334 337 343 347 348
241 242 242 244 244 243 242 240 240 242 247 252 255 256 256 257 259 259 258 257 258 257 255 251 248 250 255 258 257 257 260 260 261 263 268 273 275 277 281 285 287 282 279 280 283 288 293 299 303 305 306 304 305 308 309 308 309 309 306 305 306 309 312 312 311 310 308 306 306 307 310 314 318 322 325 328 331 332 332 332 331 334 339 342 343
246 247 247 248 248 249 249 247 247 250 254 257 258 258 259 261 262 263 262 261 260 259 260 260 257 256 256 257 260 262 264 264 265 265 266 267 269 272 276 281 286 286 281 279 280 283 288 295 301 304 306 307 310 313 314 314 314 314 313 314 315 313 311 310 310 310 307 306 307 307 308 310 312 315 319 326 333 335 335 332 329 331 333 334 337
247 249 250 250 251 253 254 254 255 257 260 260 258 256 258 262 264 263 262 262 262 261 261 261 260 261 261 262 264 265 267 270 272 274 274 274 274 274 276 280 283 283 281 279 280 283 286 293 300 305 308 310 313 316 319 320 320 320 322 324 322 319 316 312 308 307 305 304 305 306 305 306 307 309 316 324 331 336 337 332 328 327 324 324 330
249 249 249 250 251 252 254 256 258 260 262 263 261 260 263 265 266 266 264 262 263 263 262 262 260 259 260 262 264 266 268 273 278 280 281 281 280 279 280 282 281 277 273 272 276 280 284 291 298 303 308 311 312 314 319 322 322 326 330 329 326 328 330 324 315 313 311 307 304 303 303 303 303 305 311 317 323 329 332 331 328 325 317 316 324
250 250 249 249 249 251 253 256 257 259 262 263 263 265 268 270 269 269 268 267 267 266 266 266 264 263 264 264 266 266 267 272 276 278 278 279 280 283 285 285 279 270 265 265 268 275 282 288 292 297 301 304 305 307 312 316 317 321 325 324 321 326 331 329 326 325 322 316 310 305 301 299 298 298 301 308 314 320 324 326 326 322 313 310 316
250 251 251 250 249 249 251 254 256 259 260 261 262 263 265 268 269 270 272 273 274 274 272 269 268 268 268 269 270 271 272 274 277 278 278 277 277 277 280 282 277 268 265 267 271 277 283 288 291 295 298 299 300 301 305 309 312 314 317 318 317 319 321 321 323 325 324 321 317 311 305 299 295 293 295 301 308 312 315 318 321 319 312 307 308
245 247 248 248 249 250 251 252 255 258 259 259 260 262 264 265 267 269 273 275 278 279 278 275 273 272 272 272 272 274 276 278 280 281 280 281 280 278 276 275 271 267 268 271 275 280 285 288 290 293 296 298 299 302 303 305 308 310 312 314 314 315 314 313 313 316 318 318 316 312 308 304 299 295 294 299 304 306 307 309 311 312 309 304 303
241 242 244 245 246 249 253 255 256 257 257 256 256 259 263 265 266 267 269 271 275 277 279 279 278 277 278 278 278 280 282 282 282 282 282 282 282 281 279 277 273 272 273 275 278 281 284 287 290 294 297 297 298 300 303 304 306 308 310 312 312 312 313 311 309 306 309 313 314 309 306 306 305 300 296 297 300 301 301 300 299 300 300 298 297
243 242 243 245 246 248 251 257 262 262 259 257 257 260 263 264 266 267 267 268 270 272 274 276 277 279 281 282 284 285 287 289 290 290 289 287 284 283 282 281 280 279 278 279 281 283 286 288 291 294 296 297 298 300 302 304 307 309 310 312 313 315 316 316 313 309 309 312 311 307 304 307 307 303 300 298 299 299 297 293 291 290 290 291 290
247 244 244 245 247 249 249 251 258 264 265 264 264 266 267 267 268 268 269 269 270 270 271 271 272 274 276 278 280 281 282 285 287 289 291 291 290 289 287 285 284 283 283 284 286 287 289 290 292 294 296 298 300 302 304 307 309 310 311 312 313 314 314 314 312 310 310 310 309 305 302 303 306 305 303 301 301 301 298 293 289 285 284 284 284
246 245 246 246 246 250 252 252 252 257 263 268 270 271 271 269 267 267 267 268 270 270 271 271 271 272 273 275 276 276 277 278 280 283 285 286 288 289 290 288 285 284 285 286 288 290 291 292 293 294 297 299 300 302 306 309 309 309 310 309 310 309 308 307 306 305 306 306 306 303 298 299 304 303 300 302 306 305 301 295 290 285 282 281 279
244 245 247 248 246 248 252 255 256 257 261 266 269 271 272 270 268 266 264 265 266 267 269 270 271 272 273 275 276 275 275 275 277 279 281 284 287 288 288 287 284 283 283 284 285 287 289 291 292 294 296 296 298 301 304 306 306 307 308 306 305 303 301 301 300 301 302 301 302 300 295 295 300 299 297 301 305 303 300 294 290 286 283 280 276
242 244 245 247 247 248 251 255 258 260 262 263 264 267 269 268 266 264 263 263 264 265 267 269 271 273 274 275 276 274 273 272 272 275 278 282 285 285 284 283 282 281 280 279 281 283 284 286 287 289 290 290 291 294 297 299 301 302 303 302 300 299 297 296 296 296 297 297 299 297 293 292 296 296 296 299 302 300 296 292 291 289 284 279 274
249 248 248 250 251 253 255 256 257 260 263 264 264 266 267 266 265 264 263 263 264 265 266 268 270 271 272 273 275 274 272 270 268 270 274 279 281 281 280 280 279 279 278 277 279 280 280 281 282 283 285 286 287 288 290 293 296 299 299 297 296 296 296 293 292 292 293 295 296 295 292 291 293 296 297 299 299 296 291 291 295 292 284 280 276
272 265 260 258 260 263 266 268 271 274 274 270 264 261 261 262 263 264 264 264 265 265 266 267 268 269 270 271 273 274 274 272 268 268 272 276 278 277 277 278 279 280 281 283 284 282 280 279 279 280 281 282 283 284 285 287 291 296 297 295 296 297 295 292 290 291 292 292 292 293 292 291 293 297 299 298 297 293 289 289 292 289 285 285 283
303 293 281 271 267 269 275 280 277 269 264 263 260 256 256 257 259 261 262 264 265 265 266 267 267 268 269 271 273 274 275 274 272 269 270 272 274 275 277 279 280 283 289 293 292 288 283 280 278 277 277 278 280 281 281 282 285 290 292 294 297 298 293 290 291 293 292 291 291 292 291 291 294 297 299 299 298 295 290 286 285 284 285 287 286
327 315 300 286 272 266 265 260 243 232 239 249 253 254 255 257 258 259 261 262 263 265 266 266 267 268 269 269 270 272 273 274 274 272 272 272 273 276 279 281 283 288 293 295 293 289 286 283 280 278 277 277 279 280 280 280 282 284 286 290 295 295 292 291 291 292 292 292 294 295 292 292 295 296 297 301 302 299 296 292 286 283 282 281 282